{"data":{"norad_id":66531,"intl_designator":"2025-265R","name":"STARLINK-35960","alt_names":[],"object_type":"PAYLOAD","status":"ACTIVE","operator":null,"country":"US","launch_date":"2025-11-19","launch_site_code":"AFETR","launch_vehicle":null,"mission":null,"orbit_class":"UNKNOWN","rcs_meters":null,"size_class":null,"mass_kg":null,"dimensions":null,"purposes":["comms"],"wikipedia_slug":null,"has_3d_model":false,"image_url":null,"decayed_at":null,"tle_current":{"epoch":"2026-09-20T23:24:17.523648Z","epoch_age_seconds":48223,"freshness":"FRESH","line1":"1 66531U 25265R   26263.97520282  .00010318  00000+0  38387-3 0  9999","line2":"2 66531  42.9994 254.7376 0001247 241.4983 118.5743 15.27585407 46989","mean_motion":15.27585407,"eccentricity":0.0001247,"inclination_deg":42.9994,"raan_deg":254.7376,"arg_perigee_deg":241.4983,"mean_anomaly_deg":118.5743,"bstar":0.00038387,"rev_number":4698,"period_min":94.266415049617,"perigee_km":482.17731769702,"apogee_km":483.88849347148,"semimajor_km":6861.1699055843,"source":"CELESTRAK","updated_at":"2026-09-21T09:00:35.966345Z"}}}